Trinidad, CO

1:17 AM MST on December 17, 2017 (GMT -0700)
Stokes

Weather History for KTAD - August, 2013

Change the Weather History Date:

Saturday, August 3, 2013

  Actual Average Record
Temperature  
Mean Temperature 70 °F 73 °F  
Max Temperature 82 °F 87 °F 97 °F (1954)
Min Temperature 58 °F 58 °F 50 °F (1986)
Degree Days  
Heating Degree Days 0 0  
Month to date heating degree days 0 0  
Since 1 June heating degree days 21 42  
Since 1 July heating degree days 0 3  
Cooling Degree Days 5 8  
Month to date cooling degree days 29 24  
Year to date cooling degree days 676 459  
Since 1 June cooling degree days 613 431  
Growing Degree Days 20 (Base 50)    
Moisture  
Dew Point 59 °F    
Average Humidity 71    
Maximum Humidity 90    
Minimum Humidity 51    
Precipitation  
Precipitation 0.21 in 0.08 in 0.72 in (1975)
Month to date precipitation 0.68 0.25  
Year to date precipitation 6.07 8.48  
Sea Level Pressure  
Sea Level Pressure 30.07 in    
Wind  
Wind Speed 9 mph (West)    
Max Wind Speed 24 mph    
Max Gust Speed 32 mph    
Visibility 10 miles    
Events Rain , Thunderstorm    
T = Trace of Precipitation, MM = Missing Value Source: NWS Daily Summary

Daily Weather History Graph

Daily Weather History Graph

Search for Another Location

Airport or City:

Trip Planner

Search our weather history database for the weather conditions in past years. The results will help you decide how hot, cold, wet, or windy it might be!

Date:

Astronomy

Aug. 03, 2013 Rise Set
Actual Time 6:03 AM MDT 8:02 PM MDT
Civil Twilight 5:35 AM MDT 8:31 PM MDT
Nautical Twilight 5:00 AM MDT 9:05 PM MDT
Astronomical Twilight 4:22 AM MDT 9:43 PM MDT
Moon 3:16 AM MDT (8/3) 5:46 PM MDT (8/3)
Length of Visible Light 14h 55m
Length of Day
13h 58m
Waning Crescent, 9% of the Moon is Illuminated
Aug 3
Waning Crescent
Aug 6
New
Aug 14
First Quarter
Aug 20
Full
Aug 28
Last Quarter

Hourly Weather History & Observations

Time (MDT) Temp. Heat Index Dew Point Humidity Pressure Visibility Wind Dir Wind Speed Gust Speed Precip Events Conditions
12:54 AM 64.9 °F - 57.0 °F 75% 29.91 in 10.0 mi North 13.8 mph - 0.03 in   Overcast
1:54 AM 64.9 °F - 57.9 °F 78% 29.92 in 10.0 mi WSW 9.2 mph - N/A   Scattered Clouds
2:54 AM 64.0 °F - 57.9 °F 80% 29.91 in 10.0 mi WSW 10.4 mph - N/A   Overcast
3:54 AM 64.9 °F - 57.0 °F 75% 29.88 in 10.0 mi West 12.7 mph - N/A   Overcast
4:54 AM 64.9 °F - 57.0 °F 75% 29.89 in 10.0 mi WSW 18.4 mph - N/A   Mostly Cloudy
5:54 AM 64.9 °F - 55.9 °F 73% 29.89 in 10.0 mi WSW 15.0 mph - N/A   Overcast
7:54 AM 66.0 °F - 57.9 °F 75% 29.96 in 10.0 mi West 5.8 mph - N/A   Overcast
8:54 AM 68.0 °F - 59.0 °F 73% 30.00 in 10.0 mi WNW 6.9 mph - N/A   Clear
9:54 AM 70.0 °F - 60.1 °F 71% 30.02 in 10.0 mi WNW 6.9 mph - N/A   Mostly Cloudy
10:54 AM 75.0 °F - 63.0 °F 66% 30.01 in 10.0 mi Variable 3.5 mph - N/A   Clear
11:54 AM 78.1 °F - 63.0 °F 60% 30.00 in 10.0 mi East 9.2 mph - N/A   Clear
12:54 PM 81.0 °F 81.6 °F 60.1 °F 49% 29.96 in 10.0 mi East 12.7 mph - N/A   Clear
1:47 PM 78.8 °F - 57.2 °F 47% 30.21 in 10.0 mi NE 8.1 mph - N/A Thunderstorm Partly Cloudy
1:54 PM 79.0 °F - 57.9 °F 48% 29.98 in 10.0 mi NNE 5.8 mph - N/A Thunderstorm Scattered Clouds
2:54 PM 66.9 °F - 62.1 °F 84% 30.01 in 10.0 mi SSW 4.6 mph - 0.01 in Rain , Thunderstorm Light Thunderstorms and Rain
3:26 PM 73.4 °F - 62.6 °F 69% 30.20 in 10.0 mi WSW 12.7 mph - 0.00 in   Mostly Cloudy
3:54 PM 75.9 °F - 61.0 °F 60% 29.96 in 10.0 mi WSW 4.6 mph - 0.00 in   Mostly Cloudy
4:54 PM 70.0 °F - 61.0 °F 73% 29.99 in 10.0 mi ESE 9.2 mph 19.6 mph N/A   Overcast
5:54 PM 71.1 °F - 62.1 °F 73% 29.96 in 10.0 mi SE 10.4 mph - 0.03 in   Scattered Clouds
6:54 PM 73.0 °F - 60.1 °F 64% 29.94 in 10.0 mi ESE 15.0 mph 19.6 mph N/A   Partly Cloudy
7:54 PM 68.0 °F - 61.0 °F 78% 29.98 in 10.0 mi East 8.1 mph - N/A   Scattered Clouds
8:52 PM 68.0 °F - 59.0 °F 73% 30.21 in 10.0 mi NE 15.0 mph 20.7 mph 0.00 in Thunderstorm Overcast
8:54 PM 68.0 °F - 59.0 °F 73% 29.99 in 10.0 mi NE 15.0 mph 20.7 mph 0.00 in Thunderstorm Overcast
9:31 PM 66.2 °F - 57.2 °F 73% 30.32 in 10.0 mi NW 20.7 mph 32.2 mph N/A Thunderstorm Thunderstorm
9:54 PM 59.0 °F - 55.0 °F 87% 30.11 in 9.0 mi NNW 6.9 mph - 0.09 in Rain , Thunderstorm Light Thunderstorms and Rain
10:54 PM 60.1 °F - 57.0 °F 90% 30.12 in 10.0 mi West 5.8 mph - 0.07 in Rain , Thunderstorm Light Rain
11:15 PM 60.8 °F - 57.2 °F 88% 30.34 in 10.0 mi Calm Calm - 0.00 in   Overcast
11:24 PM 62.6 °F - 57.2 °F 82% 30.34 in 10.0 mi SW 4.6 mph - 0.00 in Thunderstorm Overcast
11:33 PM 60.8 °F - 57.2 °F 88% 30.33 in 10.0 mi South 3.5 mph - 0.00 in Rain Light Rain
11:40 PM 60.8 °F - 57.2 °F 88% 30.33 in 10.0 mi Calm Calm - 0.01 in Rain Light Rain
11:49 PM 62.6 °F - 57.2 °F 82% 30.33 in 10.0 mi Calm Calm - 0.01 in   Overcast
11:54 PM 62.1 °F - 57.9 °F 86% 30.10 in 10.0 mi Calm Calm - 0.01 in   Overcast